Weather History for Rae Point, NT

Change the Weather History Date:

Saturday, November 9, 2013

  Actual Average Record
Temperature  
Mean Temperature -4 °F -  
Max Temperature 0 °F - - ()
Min Temperature -8 °F - - ()
Degree Days  
Heating Degree Days 69    
Moisture  
Dew Point -10 °F    
Average Humidity 77    
Maximum Humidity 85    
Minimum Humidity 57    
Precipitation  
Precipitation 0.00 in - - ()
Sea Level Pressure  
Sea Level Pressure 30.11 in    
Wind  
Wind Speed 23 mph ()    
Max Wind Speed 31 mph    
Max Gust Speed 36 mph    
T = Trace of Precipitation, MM = Missing Value Source: Averaged Metar Reports

Daily Weather History Graph

Daily Weather History Graph

Search for Another Location

Airport:

Trip Planner

Search our weather history database for the weather conditions in past years. The results will help you decide how hot, cold, wet, or windy it might be!

Date:

Astronomy

Dec. 31, 1969 Rise Set
Actual Time Sun does not rise Sun does not rise
Civil Twilight 8:57 AM MST 2:33 PM MST
Nautical Twilight 6:59 AM MST 4:32 PM MST
Astronomical Twilight 5:21 AM MST 6:09 PM MST
Moon 3:18 PM MST (11/9) 8:42 PM MST (11/9)
Length of Visible Light 5h 36m
Length of Day
0h 00m
Waxing Crescent, 45% of the Moon is Illuminated
Nov 9
Waxing Crescent
Nov 9
First Quarter
Nov 17
Full
Nov 25
Last Quarter
Dec 2
New

Hourly Weather History & Observations

Time (MST) Temp. Windchill Dew Point Humidity Pressure Visibility Wind Dir Wind Speed Gust Speed Precip Events Conditions
12:00 AM -2.2 °F -26.7 °F -6.0 °F 84% 30.07 in - WNW 24.2 mph 33.4 mph N/A   Unknown
1:00 AM -1.7 °F -26.9 °F -5.6 °F 83% 30.09 in - West 26.5 mph - N/A   Unknown
2:00 AM -0.4 °F -24.7 °F -4.0 °F 85% 30.09 in - West 25.3 mph - N/A   Unknown
3:00 AM -0.4 °F -22.8 °F -3.8 °F 85% 30.12 in - West 20.7 mph - N/A   Unknown
4:00 AM -0.9 °F -26.7 °F -4.5 °F 85% 30.12 in - West 28.8 mph - N/A   Unknown
5:00 AM -2 °F - -6 °F 74% 30.12 in - West 31.1 mph - -  
5:00 AM -1.8 °F -28.7 °F -6.2 °F 82% 30.12 in - West 31.1 mph - N/A   Unknown
6:00 AM -3.6 °F -31.2 °F -8.3 °F 80% 30.11 in - West 31.1 mph - N/A   Unknown
7:00 AM -3.8 °F -31.0 °F -8.9 °F 79% 30.10 in - West 29.9 mph 35.7 mph N/A   Unknown
8:00 AM -4.0 °F -31.6 °F -9.2 °F 78% 30.11 in - West 31.1 mph - N/A   Unknown
9:00 AM -5.1 °F -33.1 °F -10.1 °F 79% 30.12 in - West 31.1 mph - N/A   Unknown
10:00 AM -5.4 °F -33.2 °F -10.3 °F 80% 30.12 in - West 29.9 mph - N/A   Unknown
11:00 AM -5 °F - -10 °F 69% 30.11 in - West 27.6 mph - -  
11:00 AM -5.3 °F -32.1 °F -9.9 °F 80% 30.11 in - West 27.6 mph 35.7 mph N/A   Unknown
12:00 PM -6.0 °F -33.9 °F -11.0 °F 79% 30.13 in - WSW 29.9 mph - N/A   Unknown
1:00 PM -4.9 °F -31.6 °F -9.6 °F 80% 30.13 in - West 27.6 mph - N/A   Unknown
2:00 PM -4.5 °F -30.3 °F -9.9 °F 78% 30.12 in - West 25.3 mph - N/A   Unknown
3:00 PM -4.9 °F -31.2 °F -10.3 °F 78% 30.12 in - West 26.5 mph - N/A   Unknown
4:00 PM -5.6 °F -31.2 °F -11.0 °F 77% 30.14 in - WSW 24.2 mph - N/A   Unknown
5:00 PM -6 °F - -11 °F 66% 30.13 in - West 21.9 mph - -  
5:00 PM -5.8 °F -30.5 °F -11.4 °F 77% 30.13 in - West 21.9 mph - N/A   Unknown
6:00 PM -7.1 °F -31.6 °F -13.0 °F 75% 30.12 in - West 20.7 mph - N/A   Unknown
7:00 PM -5.1 °F -30.5 °F -12.5 °F 70% 30.11 in - West 24.2 mph - N/A   Unknown
8:00 PM -5.6 °F -29.7 °F -12.6 °F 72% 30.09 in - West 20.7 mph - N/A   Unknown
9:00 PM -6.0 °F -32.2 °F -13.0 °F 72% 30.08 in - West 25.3 mph - N/A   Unknown
10:00 PM -7.4 °F -32.1 °F -14.3 °F 72% 30.08 in - West 20.7 mph - N/A   Unknown
11:00 PM -8 °F - -15 °F 57% 30.07 in - West 19.6 mph - -  
11:00 PM -8.1 °F -32.4 °F -15.2 °F 71% 30.07 in - West 19.6 mph - N/A   Unknown